Weather History for Ketchikan, AK

Change the Weather History Date:

Thursday, November 22, 2012

  Actual Average Record
Temperature  
Mean Temperature 42 °F -  
Max Temperature 44 °F 43 °F 60 °F (1949)
Min Temperature 39 °F 32 °F 8 °F (1996)
Degree Days  
Heating Degree Days 24    
Moisture  
Dew Point 35 °F    
Average Humidity 79    
Maximum Humidity 87    
Minimum Humidity 55    
Precipitation  
Precipitation 0.95 in - - ()
Sea Level Pressure  
Sea Level Pressure 29.58 in    
Wind  
Wind Speed 18 mph (SE)    
Max Wind Speed 31 mph    
Max Gust Speed 46 mph    
Visibility 8 miles    
Events Rain    
Averages and records for this station are not official NWS values.
T = Trace of Precipitation, MM = Missing Value Source: NWS Daily Summary

Daily Weather History Graph

Daily Weather History Graph

Search for Another Location

Airport:

Trip Planner

Search our weather history database for the weather conditions in past years. The results will help you decide how hot, cold, wet, or windy it might be!

Date:

Astronomy

Nov. 22, 2012 Rise Set
Actual Time 7:35 AM AKST 3:30 PM AKST
Civil Twilight 6:52 AM AKST 4:13 PM AKST
Nautical Twilight 6:06 AM AKST 4:59 PM AKST
Astronomical Twilight 5:22 AM AKST 5:42 PM AKST
Moon 1:05 PM AKST (11/22) 1:10 AM AKST (11/22)
Length of Visible Light 9h 20m
Length of Day
7h 55m
Waxing Gibbous, 72% of the Moon is Illuminated
Nov 22
Waxing Gibbous
Nov 28
Full
Dec 6
Last Quarter
Dec 12
New
Dec 19
First Quarter

Hourly Weather History & Observations

Time (AKST) Temp. Windchill Dew Point Humidity Pressure Visibility Wind Dir Wind Speed Gust Speed Precip Events Conditions
12:53 AM 39.9 °F 32.5 °F 33.1 °F 77% 29.92 in 10.0 mi SSE 12.7 mph 28.8 mph N/A   Overcast
1:53 AM 39.9 °F 33.9 °F 33.1 °F 77% 29.89 in 10.0 mi SSE 9.2 mph - N/A   Overcast
3:53 AM 43.0 °F 37.7 °F 28.9 °F 58% 29.82 in 10.0 mi SSE 9.2 mph 29.9 mph N/A   Overcast
4:53 AM 44.1 °F 34.8 °F 28.9 °F 55% 29.78 in 10.0 mi ESE 25.3 mph 39.1 mph N/A   Overcast
5:53 AM 42.1 °F 31.9 °F 32.0 °F 67% 29.74 in 10.0 mi SE 26.5 mph 36.8 mph 0.00 in Rain Light Rain
6:09 AM 41.0 °F 30.9 °F 32.0 °F 70% 29.73 in 10.0 mi ESE 24.2 mph 36.8 mph 0.00 in Rain Light Rain
6:53 AM 42.1 °F 31.7 °F 32.0 °F 67% 29.69 in 10.0 mi ESE 27.6 mph 46.0 mph 0.00 in Rain Light Rain
7:53 AM 42.1 °F 31.1 °F 33.1 °F 70% 29.64 in 9.0 mi SE 31.1 mph 42.6 mph 0.01 in Rain Light Rain
8:53 AM 39.9 °F 29.7 °F 34.0 °F 79% 29.61 in 6.0 mi SE 23.0 mph 33.4 mph 0.03 in Rain Light Rain
9:53 AM 39.0 °F 28.5 °F 34.0 °F 82% 29.58 in 4.0 mi SE 23.0 mph 38.0 mph 0.05 in Rain Light Rain
10:53 AM 39.0 °F 28.5 °F 35.1 °F 86% 29.52 in 4.0 mi SE 23.0 mph 35.7 mph 0.12 in Rain Light Rain
11:53 AM 39.9 °F 30.5 °F 36.0 °F 86% 29.52 in 6.0 mi SSE 19.6 mph 32.2 mph 0.11 in Rain Light Rain
12:53 PM 39.9 °F 30.2 °F 36.0 °F 86% 29.50 in 7.0 mi SSE 20.7 mph 35.7 mph 0.06 in Rain Light Rain
1:53 PM 39.9 °F 31.1 °F 36.0 °F 86% 29.49 in 7.0 mi SSE 17.3 mph 31.1 mph 0.09 in Rain Light Rain
2:53 PM 41.0 °F 32.2 °F 37.0 °F 86% 29.47 in 6.0 mi SE 18.4 mph 33.4 mph 0.07 in Rain Light Rain
3:53 PM 42.1 °F 33.3 °F 37.9 °F 85% 29.45 in 8.0 mi SE 19.6 mph 29.9 mph 0.03 in Rain Light Rain
4:53 PM 42.1 °F 33.6 °F 37.0 °F 82% 29.42 in 8.0 mi SSE 18.4 mph 24.2 mph 0.06 in Rain Light Rain
5:53 PM 42.1 °F 32.6 °F 37.0 °F 82% 29.39 in 9.0 mi SE 23.0 mph 40.3 mph 0.09 in Rain Light Rain
6:53 PM 41.0 °F 32.5 °F 37.0 °F 86% 29.40 in 8.0 mi SSE 17.3 mph 41.4 mph 0.11 in Rain Light Rain
7:53 PM 42.1 °F 31.1 °F 36.0 °F 79% 29.43 in 10.0 mi ESE 31.1 mph 40.3 mph 0.05 in Rain Light Rain
8:53 PM 42.1 °F 31.9 °F 37.0 °F 82% 29.48 in 10.0 mi SE 26.5 mph 32.2 mph 0.06 in   Overcast
9:00 PM 42.8 °F 34.5 °F 37.4 °F 81% 29.48 in 10.0 mi SE 18.4 mph 32.2 mph N/A   Overcast
9:53 PM 43.0 °F 36.4 °F 37.9 °F 82% 29.51 in 10.0 mi SE 12.7 mph - 0.01 in   Mostly Cloudy
10:21 PM 42.8 °F 37.5 °F 39.2 °F 87% 29.51 in 10.0 mi SSE 9.2 mph - N/A   Overcast
10:53 PM 43.0 °F 37.2 °F 39.0 °F 86% 29.53 in 10.0 mi SE 10.4 mph - N/A   Overcast
11:53 PM 43.0 °F 35.7 °F 39.0 °F 86% 29.54 in 10.0 mi SE 15.0 mph - N/A   Overcast